Find Beidou DW 31

NORAD ID: 43246 Int'l Des: 2018-029 Owner: CNSA Country: CN Constellation: BeiDou operational
MEOCIRCULAR

实时位置

正在加载3D地球...

关于 Beidou DW 31

正在加载描述...

即将过境

Passes for default location (London). Set your location on the main map for personalized predictions.

高度历史

Loading altitude history...

两行轨道根数

1 43246U 18029B 26119.01997887 -.00000076 00000-0 00000+0 0 9990
2 43246 54.2368 301.6935 0004828 36.3059 323.7159 1.86228959 54968
Epoch: Apr 29, 2026 • Age: 28 hours

当前状态

高度 21519.6 km
速度 3.78 km/s
星下点 40.96°N, 59.52°E
发射日期 Mar 29, 2018
运行时间 8 years
类型 navigation

发射组

Unknown Vehicle • BeiDou Launch 28 • 2 satellites

技术详情

分类 Payload
质量 1014.00 kg
干质量 850.00 kg
总质量 1014.00 kg
长度 2.20 m
直径 1.70 m
跨度 10.00 m
形状 Box + 2 Pan
制造商 SECM
平台类型 BD-3M2
阶段状态 In Orbit
所有者/国家 CNSA/CN

Most Searched